| time (UTC) | temp C | wind direction | speed KPH | gust KPH | rain 1hr cm | rain 24hr cm | rain mn cm | humidity % | barometer mb |
| 20260506140004 | 13 | 154 | 0.0 | 0.0 | 0.00 | 0.00 | 0.00 | 89 | 1019.9 |
| 20260506134513 | 13 | 170 | 0.0 | 0.0 | 0.00 | 0.00 | 0.00 | 88 | 1019.8 |
| 20260506133035 | 12 | 161 | 0.0 | 0.0 | 0.00 | 0.00 | 0.00 | 89 | 1019.7 |
| 20260506131525 | 12 | 161 | 0.0 | 0.0 | 0.00 | 0.00 | 0.00 | 89 | 1019.6 |
| 20260506130006 | 13 | 171 | 0.0 | 1.6 | 0.00 | 0.00 | 0.00 | 89 | 1019.5 |
| 20260506124509 | 13 | 165 | 1.6 | 3.2 | 0.00 | 0.00 | 0.00 | 89 | 1019.4 |
| 20260506123012 | 13 | 145 | 0.0 | 3.2 | 0.00 | 0.00 | 0.00 | 88 | 1019.4 |
| 20260506121517 | 13 | 145 | 0.0 | 1.6 | 0.00 | 0.00 | 0.00 | 88 | 1019.2 |
| 20260506120034 | 13 | 146 | 0.0 | 3.2 | 0.00 | 0.00 | 0.00 | 87 | 1019.1 |
| 20260506114506 | 13 | 147 | 0.0 | 3.2 | 0.00 | 0.00 | 0.00 | 88 | 1019.0 |
| 20260506113012 | 12 | 149 | 0.0 | 3.2 | 0.00 | 0.00 | 0.00 | 88 | 1019.0 |
| 20260506111513 | 12 | 151 | 0.0 | 3.2 | 0.00 | 0.00 | 0.00 | 88 | 1018.8 |
| 20260506110020 | 13 | 150 | 0.0 | 3.2 | 0.00 | 0.00 | 0.00 | 88 | 1018.8 |
| 20260506104522 | 13 | 315 | 0.0 | 0.0 | 0.00 | 0.00 | 0.00 | 88 | 1018.7 |
| 20260506103008 | 13 | 312 | 0.0 | 0.0 | 0.00 | 0.00 | 0.00 | 87 | 1018.6 |
| 20260506101512 | 13 | 310 | 0.0 | 1.6 | 0.00 | 0.00 | 0.00 | 87 | 1018.5 |
| 20260506100029 | 13 | 309 | 0.0 | 0.0 | 0.00 | 0.00 | 0.00 | 87 | 1018.5 |
| 20260506094525 | 13 | 309 | 0.0 | 3.2 | 0.00 | 0.00 | 0.00 | 87 | 1018.5 |
| 20260506093009 | 13 | 310 | 0.0 | 0.0 | 0.00 | 0.00 | 0.00 | 86 | 1018.5 |
| 20260506091512 | 13 | 312 | 0.0 | 3.2 | 0.00 | 0.00 | 0.00 | 86 | 1018.5 |
| 20260506090016 | 13 | 308 | 0.0 | 3.2 | 0.00 | 0.00 | 0.00 | 85 | 1018.6 |
| 20260506084532 | 13 | 306 | 0.0 | 3.2 | 0.00 | 0.00 | 0.00 | 85 | 1018.6 |
| 20260506083029 | 13 | 310 | 0.0 | 3.2 | 0.00 | 0.00 | 0.00 | 85 | 1018.6 |
| 20260506081509 | 13 | 45 | 0.0 | 3.2 | 0.00 | 0.00 | 0.00 | 84 | 1018.5 |
| 20260506073022 | 13 | 185 | 1.6 | 3.2 | 0.00 | 0.00 | 0.00 | 83 | 1018.1 |
| 20260506071526 | 13 | 154 | 1.6 | 3.2 | 0.00 | 0.00 | 0.00 | 83 | 1017.9 |
| 20260506061526 | 13 | 150 | 3.2 | 4.8 | 0.00 | 0.00 | 0.00 | 82 | 1017.4 |
| 20260506044516 | 13 | 147 | 1.6 | 6.4 | 0.00 | 0.03 | 0.00 | 81 | 1016.5 |
| 20260506043020 | 13 | 196 | 6.4 | 12.9 | 0.00 | 0.03 | 0.00 | 82 | 1016.5 |
| 20260506041522 | 13 | 181 | 12.9 | 19.3 | 0.00 | 0.03 | 0.00 | 82 | 1016.1 |
| 20260506040035 | 13 | 172 | 8.0 | 16.1 | 0.00 | 0.03 | 0.00 | 81 | 1015.9 |
| 20260506034529 | 13 | 164 | 6.4 | 20.9 | 0.00 | 0.03 | 0.00 | 81 | 1015.7 |
| 20260506033014 | 13 | 165 | 8.0 | 16.1 | 0.00 | 0.03 | 0.00 | 81 | 1015.5 |
| 20260506031503 | 13 | 156 | 8.0 | 20.9 | 0.00 | 0.03 | 0.00 | 80 | 1015.3 |
| 20260506030004 | 13 | 140 | 9.7 | 19.3 | 0.00 | 0.03 | 0.00 | 80 | 1015.0 |
| 20260506024509 | 14 | 140 | 6.4 | 16.1 | 0.00 | 0.03 | 0.00 | 79 | 1014.7 |
| 20260506023016 | 14 | 172 | 9.7 | 24.1 | 0.00 | 0.03 | 0.00 | 79 | 1014.5 |
| 20260506021530 | 14 | 158 | 9.7 | 22.5 | 0.00 | 0.03 | 0.00 | 79 | 1014.5 |
| 20260506020004 | 15 | 84 | 8.0 | 24.1 | 0.00 | 0.05 | 0.00 | 78 | 1014.4 |
| 20260506014504 | 15 | 156 | 8.0 | 27.4 | 0.00 | 0.08 | 0.00 | 76 | 1014.1 |
| 20260506013010 | 15 | 179 | 16.1 | 33.8 | 0.00 | 0.13 | 0.00 | 76 | 1014.1 |
| 20260506011516 | 15 | 124 | 11.3 | 27.4 | 0.00 | 0.18 | 0.00 | 77 | 1014.0 |
| 20260506010040 | 16 | 175 | 12.9 | 25.7 | 0.00 | 0.18 | 0.00 | 76 | 1013.9 |
| 20260506004505 | 16 | 215 | 8.0 | 27.4 | 0.00 | 0.18 | 0.00 | 75 | 1013.8 |
| 20260506003008 | 16 | 192 | 12.9 | 22.5 | 0.00 | 0.18 | 0.00 | 75 | 1013.8 |
| 20260506001516 | 16 | 141 | 12.9 | 24.1 | 0.00 | 0.18 | 0.00 | 74 | 1013.7 |
| 20260506000020 | 16 | 135 | 9.7 | 22.5 | 0.00 | 0.18 | 0.00 | 74 | 1013.7 |
| 20260505234508 | 16 | 140 | 6.4 | 22.5 | 0.00 | 0.18 | 0.00 | 74 | 1013.7 |
| 20260505233008 | 16 | 156 | 12.9 | 25.7 | 0.00 | 0.18 | 0.00 | 74 | 1013.7 |
| 20260505231512 | 17 | 184 | 11.3 | 20.9 | 0.00 | 0.18 | 0.00 | 1013.8 | |
| 20260505230020 | 17 | 199 | 6.4 | 20.9 | 0.00 | 0.18 | 0.00 | 72 | 1013.8 |
| 20260505224522 | 17 | 184 | 8.0 | 22.5 | 0.00 | 0.18 | 0.00 | 73 | 1013.9 |
| 20260505223008 | 17 | 208 | 9.7 | 20.9 | 0.00 | 0.20 | 0.00 | 69 | 1014.2 |
| 20260505221512 | 18 | 102 | 3.2 | 22.5 | 0.00 | 0.20 | 0.00 | 71 | 1014.3 |
| 20260505220015 | 18 | 222 | 6.4 | 16.1 | 0.00 | 0.23 | 0.00 | 68 | 1014.5 |
| 20260505214539 | 18 | 77 | 3.2 | 17.7 | 0.00 | 0.28 | 0.00 | 71 | 1014.7 |
| 20260505213026 | 17 | 156 | 6.4 | 14.5 | 0.00 | 0.33 | 0.00 | 71 | 1014.8 |
| 20260505211510 | 16 | 173 | 8.0 | 14.5 | 0.00 | 0.38 | 0.00 | 73 | 1014.9 |
| 20260505210013 | 16 | 209 | 4.8 | 17.7 | 0.00 | 0.53 | 0.00 | 74 | 1015.0 |
| 20260505204520 | 15 | 96 | 8.0 | 19.3 | 0.00 | 0.64 | 0.00 | 76 | 1015.0 |
| 20260505203034 | 15 | 232 | 6.4 | 22.5 | 0.00 | 0.71 | 0.00 | 76 | 1015.0 |
| 20260505201509 | 16 | 234 | 8.0 | 19.3 | 0.00 | 0.74 | 0.00 | 74 | 1015.0 |
| 20260505200014 | 16 | 162 | 6.4 | 17.7 | 0.00 | 0.74 | 0.00 | 74 | 1015.0 |
| 20260505194516 | 15 | 183 | 8.0 | 17.7 | 0.00 | 0.74 | 0.00 | 74 | 1015.0 |
| 20260505193021 | 18 | 47 | 1.6 | 8.0 | 0.00 | 0.74 | 0.00 | 66 | 1015.1 |
| 20260505191526 | 17 | 40 | 6.4 | 12.9 | 0.00 | 0.74 | 0.00 | 66 | 1015.1 |
| 20260505190010 | 16 | 13 | 1.6 | 6.4 | 0.00 | 0.74 | 0.00 | 73 | 1015.1 |
| 20260505184518 | 15 | 65 | 1.6 | 9.7 | 0.00 | 0.74 | 0.00 | 74 | 1015.3 |
| 20260505183020 | 15 | 50 | 1.6 | 6.4 | 0.00 | 0.74 | 0.00 | 71 | 1015.2 |
| 20260505181525 | 16 | 44 | 3.2 | 11.3 | 0.00 | 0.74 | 0.00 | 72 | 1015.1 |
| 20260505180050 | 15 | 88 | 4.8 | 11.3 | 0.00 | 0.74 | 0.00 | 75 | 1015.0 |
| 20260505174528 | 15 | 67 | 3.2 | 6.4 | 0.00 | 0.74 | 0.00 | 74 | 1014.9 |
| 20260505173022 | 15 | 42 | 1.6 | 8.0 | 0.00 | 0.74 | 0.00 | 75 | 1014.8 |
| 20260505171525 | 15 | 23 | 1.6 | 4.8 | 0.00 | 0.74 | 0.00 | 76 | 1014.7 |
| 20260505170024 | 15 | 21 | 1.6 | 4.8 | 0.00 | 0.74 | 0.00 | 74 | 1014.7 |
| 20260505164513 | 13 | 27 | 0.0 | 3.2 | 0.00 | 0.74 | 0.00 | 75 | 1014.7 |
| 20260505163020 | 14 | 56 | 0.0 | 1.6 | 0.00 | 0.74 | 0.00 | 80 | 1014.6 |
| 20260505161520 | 13 | 83 | 0.0 | 1.6 | 0.00 | 0.74 | 0.00 | 83 | 1014.5 |
| 20260505153012 | 12 | 202 | 0.0 | 3.2 | 0.00 | 0.74 | 0.00 | 85 | 1014.3 |
| 20260505151502 | 12 | 165 | 1.6 | 3.2 | 0.00 | 0.74 | 0.00 | 86 | 1014.2 |